TimeEDT,TemperatureF,Dew PointF,Humidity,Sea Level PressureIn,VisibilityMPH,Wind Direction,Wind SpeedMPH,Gust SpeedMPH,PrecipitationIn,Events,Conditions,WindDirDegrees,DateUTC
12:53 AM,48.0,41.0,77,29.92,10.0,South,9.2,-,N/A,,Clear,180,2012-10-10 04:53:00
1:53 AM,46.9,41.0,80,29.92,10.0,South,9.2,-,N/A,,Clear,180,2012-10-10 05:53:00
2:53 AM,48.0,42.1,80,29.91,10.0,South,8.1,-,N/A,,Mostly Cloudy,190,2012-10-10 06:53:00
3:53 AM,48.0,43.0,83,29.91,10.0,SSW,5.8,-,N/A,,Overcast,210,2012-10-10 07:53:00
4:45 AM,48.2,44.6,87,29.91,10.0,SW,4.6,-,N/A,,Overcast,220,2012-10-10 08:45:00
4:53 AM,48.9,43.0,80,29.91,10.0,WSW,4.6,-,N/A,,Mostly Cloudy,250,2012-10-10 08:53:00
5:23 AM,48.2,42.8,82,29.93,10.0,NW,15.0,-,N/A,,Overcast,320,2012-10-10 09:23:00
5:53 AM,48.0,42.1,80,29.95,10.0,NW,12.7,-,N/A,,Overcast,320,2012-10-10 09:53:00
6:42 AM,46.4,41.0,81,29.98,10.0,WNW,11.5,-,0.00,,Overcast,300,2012-10-10 10:42:00
6:53 AM,46.9,41.0,80,29.99,10.0,NW,11.5,-,0.00,,Overcast,310,2012-10-10 10:53:00
7:32 AM,46.4,39.2,76,30.00,10.0,WNW,11.5,18.4,N/A,,Overcast,300,2012-10-10 11:32:00
7:53 AM,46.0,39.0,76,30.01,10.0,WNW,13.8,-,N/A,,Overcast,300,2012-10-10 11:53:00
8:53 AM,45.0,37.0,74,30.05,10.0,WNW,13.8,-,N/A,,Overcast,300,2012-10-10 12:53:00
9:17 AM,46.4,37.4,71,30.05,10.0,WNW,11.5,-,N/A,,Scattered Clouds,300,2012-10-10 13:17:00
9:53 AM,48.0,37.0,66,30.07,10.0,West,11.5,-,N/A,,Partly Cloudy,280,2012-10-10 13:53:00
10:53 AM,50.0,37.0,61,30.08,10.0,WNW,10.4,-,N/A,,Scattered Clouds,290,2012-10-10 14:53:00
11:53 AM,52.0,35.1,53,30.10,10.0,West,19.6,25.3,N/A,,Partly Cloudy,280,2012-10-10 15:53:00
12:53 PM,52.0,36.0,54,30.12,10.0,West,15.0,21.9,N/A,,Mostly Cloudy,280,2012-10-10 16:53:00
1:53 PM,52.0,33.1,49,30.12,10.0,West,16.1,21.9,N/A,,Mostly Cloudy,280,2012-10-10 17:53:00
2:53 PM,53.1,30.9,43,30.13,10.0,West,18.4,27.6,N/A,,Partly Cloudy,280,2012-10-10 18:53:00
3:53 PM,51.1,30.0,44,30.14,10.0,WNW,15.0,25.3,N/A,,Partly Cloudy,290,2012-10-10 19:53:00
4:53 PM,53.1,27.0,37,30.14,10.0,NW,21.9,26.5,N/A,,Clear,310,2012-10-10 20:53:00
5:53 PM,52.0,26.1,37,30.15,10.0,WNW,13.8,23.0,N/A,,Clear,300,2012-10-10 21:53:00
6:53 PM,48.9,26.1,41,30.17,10.0,WNW,9.2,-,N/A,,Clear,290,2012-10-10 22:53:00
7:53 PM,46.0,27.0,47,30.19,10.0,WNW,5.8,-,N/A,,Clear,290,2012-10-10 23:53:00
8:53 PM,41.0,28.9,62,30.22,10.0,Calm,Calm,-,N/A,,Clear,0,2012-10-11 00:53:00
9:53 PM,39.0,30.0,70,30.23,10.0,South,4.6,-,N/A,,Clear,180,2012-10-11 01:53:00
10:53 PM,37.9,28.9,70,30.24,10.0,Calm,Calm,-,N/A,,Clear,0,2012-10-11 02:53:00
11:53 PM,36.0,30.9,82,30.24,10.0,Calm,Calm,-,N/A,,Clear,0,2012-10-11 03:53:00